This is the latest recevied weather packets stored in our database for station/object EA1HEH-13. If no packets are shown the sender has not sent any weather packets the latest 10 day(s).
| Time | Temp. | Humidity | Pressure | Rain* | Wind** | Luminosity | Snow |
|---|---|---|---|---|---|---|---|
| 1778076945 | 17.78° C | 22% | 932.5 hPa | - | - | - | - |
| 1778076345 | 17.78° C | 22% | 932.5 hPa | - | - | - | - |
| 1778075745 | 17.78° C | 22% | 932.6 hPa | - | - | - | - |
| 1778075145 | 17.78° C | 23% | 932.7 hPa | - | - | - | - |
| 1778074545 | 17.22° C | 23% | 932.9 hPa | - | - | - | - |
| 1778073945 | 17.22° C | 23% | 932.9 hPa | - | - | - | - |
| 1778073345 | 17.22° C | 23% | 933 hPa | - | - | - | - |
| 1778072745 | 16.67° C | 23% | 933 hPa | - | - | - | - |
| 1778072145 | 17.22° C | 23% | 933.1 hPa | - | - | - | - |
| 1778071545 | 17.22° C | 24% | 933.1 hPa | - | - | - | - |
| 1778070945 | 16.67° C | 24% | 933.1 hPa | - | - | - | - |
| 1778070345 | 16.67° C | 24% | 933.3 hPa | - | - | - | - |
| 1778069745 | 16.67° C | 24% | 933.3 hPa | - | - | - | - |
| 1778069145 | 16.11° C | 23% | 933.4 hPa | - | - | - | - |
| 1778068545 | 16.11° C | 23% | 933.5 hPa | - | - | - | - |
| 1778067945 | 16.11° C | 24% | 933.5 hPa | - | - | - | - |
| 1778067345 | 16.11° C | 24% | 933.7 hPa | - | - | - | - |
| 1778066745 | 16.11° C | 24% | 933.7 hPa | - | - | - | - |
| 1778066144 | 15.56° C | 24% | 933.8 hPa | - | - | - | - |
| 1778065545 | 15.56° C | 24% | 933.9 hPa | - | - | - | - |
| 1778064945 | 15.56° C | 25% | 934 hPa | - | - | - | - |
| 1778064345 | 15° C | 25% | 933.9 hPa | - | - | - | - |
| 1778063745 | 15° C | 25% | 933.9 hPa | - | - | - | - |
| 1778063145 | 15° C | 25% | 934 hPa | - | - | - | - |
| 1778062545 | 15° C | 26% | 934 hPa | - | - | - | - |
* Rain since midnight (hover to see other rain measurements)
** Current wind speed in m/s (hover to see current wind gust speed)